Date String (YYYY-MM-DD hh:mm:ss) UTC,Instrument flags,Ambient pressure (hPa),Sample flow (lpm),Bypass flow (lpm),Sample temperature (°C),Ambient temperature (°C),ASC tube jacket temperature (°C),LED temperature (°C),Box temperature (°C),Sample RH (%),Span deviation,Mass concentration (μg/m³),Mass concentration (μg/m³),Mass concentration (μg/m³)
DateTimeUTC,F1_M11,P_M11,Q1_M11,Q2_M11,T1_M11,T2_M11,T3_M11,T4_M11,T5_M11,U1_M11,ZSPAN_M11,X0_M11,X2_M11,X1_M11
2021-12-08 09:00:00,,0820.7,4.98,0.00,22.5,21.7,00.0,31.4,24.3,11.5,0000.0,0020.98,0004.54,0002.78
2021-12-08 09:01:00,,0820.7,5.00,0.00,22.5,21.8,00.0,31.4,24.3,11.5,0000.0,0020.84,0004.49,0002.78
2021-12-08 09:02:00,,0820.7,5.01,0.00,22.5,21.8,00.0,31.4,24.3,11.5,0000.0,0019.83,0004.36,0002.77
2021-12-08 09:03:00,,0820.7,4.99,0.00,22.5,21.8,00.0,31.4,24.3,11.4,0000.0,0020.45,0004.33,0002.74
2021-12-08 09:04:00,,0820.7,4.99,0.00,22.5,21.8,00.0,31.5,24.3,11.4,0000.0,0019.65,0004.31,0002.73
2021-12-08 09:05:00,,0820.8,5.01,0.00,22.5,21.8,00.0,31.5,24.3,11.4,0000.0,0018.87,0004.32,0002.72
2021-12-08 09:06:00,,0820.9,4.99,0.00,22.5,21.8,00.0,31.5,24.3,11.4,0000.0,0019.24,0004.32,0002.70
2021-12-08 09:07:00,,0820.9,5.01,0.00,22.5,21.8,00.0,31.5,24.3,11.4,0000.0,0019.19,0004.33,0002.71
2021-12-08 09:08:00,,0820.9,4.99,0.00,22.5,21.8,00.0,31.5,24.3,11.4,0000.0,0019.56,0004.38,0002.72
2021-12-08 09:09:00,,0821.0,4.99,0.00,22.5,21.8,00.0,31.5,24.2,11.4,0000.0,0019.00,0004.43,0002.73
2021-12-08 09:10:00,,0820.9,5.01,0.00,22.4,21.6,00.0,31.5,24.1,11.3,0000.0,0018.20,0004.47,0002.75
2021-12-08 09:11:00,,0820.9,4.99,0.00,22.4,21.5,00.0,31.5,24.1,11.4,0000.0,0017.55,0004.49,0002.76
2021-12-08 09:12:00,,0820.9,5.02,0.00,22.4,21.5,00.0,31.4,24.1,11.5,0000.0,0017.66,0004.52,0002.78
2021-12-08 09:13:00,,0820.9,4.99,0.00,22.4,21.6,00.0,31.4,24.1,11.5,0000.0,0017.31,0004.54,0002.79
2021-12-08 09:14:00,,0820.9,5.01,0.00,22.4,21.6,00.0,31.4,24.1,11.5,0000.0,0016.65,0004.53,0002.82
2021-12-08 09:15:00,,0821.0,5.01,0.00,22.4,21.6,00.0,31.4,24.1,11.5,0000.0,0016.11,0004.54,0002.82
2021-12-08 09:16:00,,0821.0,5.00,0.00,22.3,21.6,00.0,31.4,24.0,11.5,0000.0,0016.15,0004.53,0002.80
2021-12-08 09:17:00,,0821.0,5.00,0.00,22.3,21.5,00.0,31.4,24.0,11.6,0000.0,0015.80,0004.51,0002.79
2021-12-08 09:18:00,,0820.9,5.01,0.00,22.3,21.5,00.0,31.4,24.0,11.6,0000.0,0015.62,0004.45,0002.77
2021-12-08 09:19:00,,0820.9,5.00,0.00,22.3,21.5,00.0,31.4,24.0,11.6,0000.0,0016.15,0004.41,0002.77
2021-12-08 09:20:00,,0821.0,4.99,0.00,22.2,21.4,00.0,31.4,24.0,11.7,0000.0,0016.31,0004.34,0002.76
2021-12-08 09:21:00,,0821.0,5.01,0.00,22.2,21.4,00.0,31.3,23.9,11.8,0000.0,0016.27,0004.28,0002.75
2021-12-08 09:22:00,,0821.0,4.99,0.00,22.2,21.4,00.0,31.3,23.8,12.0,0000.0,0016.24,0004.33,0002.81
2021-12-08 09:23:00,,0821.0,5.01,0.00,22.1,21.3,00.0,31.3,23.7,12.2,0000.0,0016.31,0004.43,0002.88
2021-12-08 09:24:00,,0821.1,4.99,0.00,22.1,21.2,00.0,31.3,23.7,12.3,0000.0,0017.11,0004.56,0002.96
2021-12-08 09:25:00,,0821.1,5.01,0.00,22.0,21.2,00.0,31.3,23.6,12.4,0000.0,0017.18,0004.70,0003.05
2021-12-08 09:26:00,,0821.1,4.99,0.00,22.0,21.1,00.0,31.2,23.6,12.5,0000.0,0017.81,0004.85,0003.14
2021-12-08 09:27:00,,0821.1,5.00,0.00,22.0,21.1,00.0,31.2,23.6,12.4,0000.0,0018.30,0005.02,0003.19
2021-12-08 09:28:00,,0821.1,5.00,0.00,22.0,21.1,00.0,31.2,23.6,12.5,0000.0,0020.04,0005.17,0003.25
2021-12-08 09:29:00,,0821.1,5.00,0.00,21.9,21.1,00.0,31.2,23.6,12.6,0000.0,0020.53,0005.33,0003.32
2021-12-08 09:30:00,,0821.0,5.00,0.00,21.9,21.1,00.0,31.1,23.6,12.5,0000.0,0020.05,0005.54,0003.39
2021-12-08 09:31:00,,0821.0,5.01,0.00,21.9,21.1,00.0,31.1,23.5,12.6,0000.0,0020.89,0005.73,0003.45
2021-12-08 09:32:00,,0821.1,5.00,0.00,21.9,21.1,00.0,31.1,23.5,12.6,0000.0,0021.29,0005.87,0003.50
2021-12-08 09:33:00,,0821.1,4.99,0.00,21.9,21.1,00.0,31.1,23.5,12.5,0000.0,0021.87,0005.91,0003.52
2021-12-08 09:34:00,,0821.1,5.01,0.00,21.8,21.1,00.0,31.1,23.5,12.4,0000.0,0022.26,0005.91,0003.52
2021-12-08 09:35:00,,0821.1,5.01,0.00,21.8,21.1,00.0,31.0,23.5,12.4,0000.0,0022.26,0005.86,0003.51
2021-12-08 09:36:00,,0821.1,4.99,0.00,21.8,21.1,00.0,31.0,23.5,12.3,0000.0,0022.19,0005.79,0003.49
2021-12-08 09:37:00,,0821.1,5.01,0.00,21.9,21.7,00.0,31.1,23.7,12.2,0000.0,0022.00,0005.77,0003.47
2021-12-08 09:38:00,,0821.1,5.00,0.00,22.1,22.4,00.0,31.1,24.0,12.0,0000.0,0022.31,0005.64,0003.44
2021-12-08 09:39:00,,0821.1,5.00,0.00,22.2,23.0,00.0,31.1,24.2,11.9,0000.0,0020.85,0005.56,0003.40
2021-12-08 09:40:00,,0821.2,4.99,0.00,22.3,22.8,00.0,31.2,24.3,11.9,0000.0,0020.30,0005.56,0003.36
2021-12-08 09:41:00,,0821.2,5.01,0.00,22.3,22.6,00.0,31.2,24.2,11.8,0000.0,0020.70,0005.46,0003.32
2021-12-08 09:42:00,,0821.1,5.00,0.00,22.3,22.4,00.0,31.2,24.2,11.8,0000.0,0020.31,0005.34,0003.29
2021-12-08 09:43:00,,0821.0,5.01,0.00,22.3,22.3,00.0,31.2,24.2,11.8,0000.0,0020.32,0005.29,0003.26
2021-12-08 09:44:00,,0821.1,4.99,0.00,22.3,22.1,00.0,31.2,24.2,11.8,0000.0,0020.79,0005.26,0003.22
2021-12-08 09:45:00,,0821.1,5.01,0.00,22.3,22.0,00.0,31.2,24.2,11.8,0000.0,0020.24,0005.22,0003.19
2021-12-08 09:46:00,,0821.1,4.99,0.00,22.3,22.0,00.0,31.2,24.2,11.8,0000.0,0019.30,0005.24,0003.17
2021-12-08 09:47:00,,0821.2,5.01,0.00,22.4,21.9,00.0,31.3,24.2,11.8,0000.0,0018.96,0005.23,0003.17
2021-12-08 09:48:00,,0821.1,5.00,0.00,22.4,21.9,00.0,31.3,24.2,11.7,0000.0,0018.02,0005.15,0003.17
2021-12-08 09:49:00,,0821.1,4.99,0.00,22.4,21.9,00.0,31.3,24.2,11.7,0000.0,0017.86,0005.17,0003.19
2021-12-08 09:50:00,,0821.2,5.01,0.00,22.4,21.8,00.0,31.3,24.2,11.7,0000.0,0018.00,0005.12,0003.19
2021-12-08 09:51:00,,0821.2,5.00,0.00,22.4,21.8,00.0,31.3,24.2,11.7,0000.0,0017.97,0005.04,0003.20
2021-12-08 09:52:00,,0821.1,4.99,0.00,22.4,21.8,00.0,31.3,24.2,11.7,0000.0,0016.99,0004.99,0003.21
2021-12-08 09:53:00,,0821.1,5.01,0.00,22.4,21.8,00.0,31.3,24.2,11.8,0000.0,0017.00,0005.01,0003.21
2021-12-08 09:54:00,,0821.1,5.00,0.00,22.4,21.8,00.0,31.3,24.2,11.8,0000.0,0017.42,0005.02,0003.21
2021-12-08 09:55:00,,0821.2,5.01,0.00,22.4,21.8,00.0,31.3,24.2,11.8,0000.0,0017.84,0004.97,0003.21
2021-12-08 09:56:00,,0821.1,5.00,0.00,22.4,21.8,00.0,31.3,24.2,11.8,0000.0,0019.45,0004.98,0003.19
2021-12-08 09:57:00,,0821.1,5.01,0.00,22.4,21.8,00.0,31.3,24.2,11.8,0000.0,0019.56,0004.99,0003.19
2021-12-08 09:58:00,,0821.1,5.00,0.00,22.4,21.8,00.0,31.3,24.2,11.8,0000.0,0020.13,0005.00,0003.17
2021-12-08 09:59:00,,0821.1,5.00,0.00,22.4,21.8,00.0,31.3,24.2,11.8,0000.0,0021.16,0004.98,0003.14
